CAPE
42 59 72 77 83 86 96 116 116 125 124 76 106 141 163 154 147 339 137 89 62 86 7 41 77 151 148 40 9 0 316 328 252 335 97 38 116 68 155 126 78 114 182 89 35 35 42 0 0 1 60 167 59 7
72 70 84 69 83 91 96 107 124 114 87 91 138 139 123 143 172 258 171 44 60 11 22 9 154 206 106 110 21 63 96 220 274 81 169 61 119 150 116 160 145 205 197 157 182 136 175 76 115 437 307 194 4 14
81 80 68 54 31 67 87 113 85 96 95 128 108 176 246 213 181 188 220 270 33 5 50 11 0 121 43 101 16 10 22 50 1 283 130 18 8 60 147 156 212 174 255 287 102 88 148 273 310 182 11 14 57 48
74 64 62 58 36 47 84 80 82 87 167 139 175 257 218 194 202 188 322 313 4 5 103 107 255 181 32 69 148 153 222 208 4 186 184 58 9 8 8 47 74 281 210 227 123 17 34 1 52 314 41 0 25 1
59 59 35 51 36 26 73 61 82 175 208 108 70 131 160 122 89 181 412 427 354 213 370 102 169 73 148 123 50 84 174 229 350 215 164 95 11 103 104 91 93 69 211 191 46 37 1 0 316 242 73 0 0 0
57 46 15 6 41 55 50 66 121 131 92 112 109 115 141 90 92 367 154 295 359 273 96 79 113 116 174 231 157 140 302 347 315 244 384 190 100 319 159 138 5 0 128 156 75 14 185 352 112 77 90 0 0 0
22 10 9 13 77 60 59 82 93 71 105 140 186 170 241 233 103 277 252 97 54 357 414 77 118 114 98 230 376 270 342 421 491 161 120 137 207 266 220 115 52 74 83 30 280 190 50 22 19 0 12 3 6 15
13 15 40 55 73 66 78 71 81 98 115 150 143 136 148 144 70 56 83 2 93 83 168 74 46 253 342 368 341 310 335 316 195 165 144 102 102 163 44 0 0 7 12 17 106 63 11 0 0 0 2 0 1 0
12 0 46 66 63 77 87 84 90 124 141 74 58 61 47 82 83 41 214 11 71 6 80 36 23 90 170 187 218 121 106 254 82 46 22 37 26 43 0 0 0 0 1 5 103 0 0 0 0 0 3 2 1 0
6 27 53 61 54 85 89 91 104 121 82 73 48 70 23 49 217 176 61 97 32 26 22 16 74 74 20 65 49 145 13 47 178 7 1 24 9 0 0 0 0 18 0 84 98 0 0 0 0 4 1 0 0 0
13 50 69 73 81 96 94 97 97 96 72 51 45 40 50 110 80 125 107 13 27 17 14 1 1 3 56 121 76 75 55 101 85 53 25 26 3 0 0 1 4 14 19 28 13 0 0 0 0 0 0 0 0 0
62 83 91 78 90 97 81 77 85 37 10 43 86 99 99 118 105 53 30 44 35 14 17 7 15 90 88 97 57 103 53 72 35 36 35 21 27 6 4 16 0 1 36 19 0 0 1 0 0 0 1 0 0 0
68 70 85 66 75 87 78 78 64 50 38 29 31 40 119 69 70 21 29 26 65 62 39 50 41 18 8 20 27 62 41 36 29 59 17 7 0 17 0 20 1 5 2 0 0 0 3 3 4 0 0 0 0 0
59 52 63 65 70 85 87 73 50 37 42 41 35 22 32 34 3 42 39 42 33 4 33 40 8 9 17 22 24 12 15 19 6 8 0 0 0 21 60 24 9 1 0 0 3 0 0 0 0 0 0 0 0 0
70 57 72 75 82 84 88 75 39 35 38 123 73 55 32 81 196 195 203 80 91 95 91 29 9 28 25 21 5 18 16 7 6 11 33 3 1 25 17 20 1 0 0 0 0 0 0 0 0 0 0 0 0 0
85 74 55 58 74 82 72 62 27 40 41 80 71 61 162 210 180 265 132 132 41 59 76 33 29 38 17 19 23 9 3 5 16 3 4 1 0 4 0 1 0 0 0 0 0 0 0 0 0 0 0 0 0 0
40 29 49 47 46 59 49 59 53 27 55 39 37 178 65 38 17 20 50 34 27 23 81 36 41 14 8 14 9 7 25 6 5 3 0 0 2 1 0 2 1 1 0 0 0 0 0 0 0 0 1 1 0 0
32 61 41 51 59 48 47 43 21 30 26 27 82 243 104 86 20 26 45 21 13 27 44 46 41 1 18 10 19 73 4 5 0 1 3 0 1 3 0 2 0 1 1 0 0 0 0 0 0 1 1 2 0 1
41 52 40 39 28 32 3 28 56 22 21 79 137 82 14 12 24 22 15 8 6 18 2 73 18 9 38 39 21 1 7 9 16 4 2 1 3 1 0 0 3 2 2 2 1 0 0 0 1 0 1 0 1 2
0 0 0 5 32 66 17 30 7 21 6 37 51 34 18 47 24 18 9 10 6 25 60 30 16 98 25 3 1 2 5 8 8 7 5 4 2 2 1 4 6 4 2 0 0 0 0 0 0 0 0 2 6 6
5 9 5 19 39 58 38 27 12 5 51 32 39 8 25 13 7 21 23 13 19 43 25 40 80 3 6 7 2 2 7 4 7 12 1 6 6 5 8 3 1 3 2 3 2 1 1 4 2 2 4 8 11 5
40 0 69 25 34 28 29 35 25 25 15 27 8 17 45 25 1 34 9 20 18 16 93 120 113 2 0 2 6 6 14 4 0 0 0 0 7 3 6 7 6 7 5 5 2 1 6 0 0 4 9 5 2 4
0 0 23 24 37 23 7 11 18 20 43 41 33 23 41 38 32 0 10 12 18 158 81 1 2 1 1 1 0 1 2 1 2 5 0 2 1 5 2 2 5 2 4 2 0 2 0 0 1 4 4 7 11 13
0 4 39 17 10 25 0 3 10 17 19 16 32 30 31 51 5 9 6 11 85 21 1 4 2 1 2 2 6 3 2 2 6 1 2 1 1 2 1 0 1 6 6 2 2 2 1 6 5 7 9 11 12 9
24 0 0 6 9 4 8 30 16 19 10 39 23 16 40 1 6 20 10 12 54 12 6 0 1 0 2 1 12 1 0 2 1 0 3 6 3 2 2 1 2 1 0 3 8 8 9 9 1 4 9 8 3 10
0 2 1 5 8 3 6 4 28 22 12 11 25 15 0 6 15 10 0 1 2 7 13 14 5 5 3 6 0 0 2 5 5 5 0 0 0 9 9 7 6 5 5 3 3 3 8 6 4 5 4 3 4 6
0 3 1 0 1 2 5 27 7 8 8 8 18 14 14 13 17 1 0 2 2 6 6 4 4 5 5 1 0 0 0 0 1 0 0 0 0 2 5 6 6 2 4 8 5 2 6 3 7 5 5 8 11 14
0 0 0 0 1 3 5 5 10 10 15 3 0 1 2 22 6 2 3 4 4 1 3 4 0 0 0 0 0 1 2 1 0 0 0 0 1 3 1 1 0 0 0 0 2 3 7 8 3 3 3 10 10 13
2 4 0 0 0 2 4 2 9 19 0 3 7 9 17 10 3 1 4 0 4 4 8 12 10 3 3 2 5 2 3 2 7 5 5 6 8 6 5 5 5 1 2 4 0 1 3 7 6 10 5 12 22 25
0 1 1 0 1 0 31 54 46 68 14 18 14 7 3 3 7 43 12 5 6 13 22 19 16 4 7 7 6 5 8 11 12 7 12 12 9 3 6 7 6 7 6 4 4 2 0 1 0 10 14 14 10 7
0 5 4 2 2 37 118 38 46 23 29 37 43 44 30 26 18 22 11 1 3 8 14 16 15 13 14 10 11 8 7 6 3 1 2 2 4 5 5 6 5 4 7 7 3 5 6 4 7 3 3 8 5 3
12 5 9 4 9 17 20 37 21 22 39 44 42 69 72 73 43 22 5 2 2 14 7 18 29 22 13 15 8 12 2 3 4 4 3 7 9 5 3 0 4 7 7 5 10 7 2 5 5 4 8 4 7 1
4 12 15 17 2 0 3 0 0 0 2 10 7 15 58 75 44 5 6 7 7 6 3 4 7 3 19 5 9 5 2 5 3 0 3 2 0 2 6 6 6 5 3 4 9 4 4 6 11 7 5 4 0 0
CIN
-0 -1 -1 -2 -2 -2 -1 -1 -2 -2 -1 -1 -0 -0 -0 -0 -1 0 -0 -1 -0 0 -27 -13 -3 0 -0 -0 0 0 -0 0 -1 0 -1 -0 0 -12 -0 -0 -4 -5 -0 -3 -0 -0 -1 -4 0 -7 -3 -4 -16 -22
0 -1 -0 -1 -1 -1 -1 -1 -1 -1 -1 -2 -0 -1 -2 -2 -1 -0 0 0 -1 0 0 -1 0 0 -3 -1 -3 -5 0 -1 -5 -9 -0 -18 -0 -0 -1 -15 -18 -2 -7 -1 -0 -1 -4 -5 -1 -5 -32 -24 -49 -32
-0 -0 -1 -0 -1 -1 -0 -1 -1 -1 -1 -2 -4 -2 -1 -1 -1 0 0 -0 0 0 0 -3 0 -31 -3 0 -6 0 -17 -15 -1 -0 -1 -5 -9 -5 -1 -8 -14 -7 -4 -4 -4 -58 -14 -10 -6 -147 -155 -50 -26 -65
-1 -1 -0 -0 -0 -0 -1 -1 -1 -2 -1 -3 -4 -1 -1 -1 -0 -0 0 -0 0 0 -7 -2 -0 -1 -4 -1 -1 0 -1 -10 -17 -1 0 -1 -17 -36 -29 -6 -23 -1 -7 -2 -20 -34 -91 -27 -94 -16 -25 0 -88 -21
-3 -1 -1 -0 -0 -0 -1 -1 -1 -1 -0 -5 -10 -16 -3 -2 -2 0 0 0 -0 0 0 -2 -1 -18 -0 -1 -24 -11 0 -0 0 -2 -1 -0 -20 -0 -0 -1 -23 -7 -5 -3 -29 -76 -38 0 -3 -71 -83 0 0 0
-1 -0 -0 -1 0 -0 -1 -1 -1 -0 -2 -2 -4 -3 -3 -1 -6 0 0 0 0 -2 -0 -14 -1 -6 -1 -1 -3 -3 -0 -0 -5 0 0 0 -1 0 0 0 -35 -40 -1 -60 -102 -64 -8 -4 -133 -105 -59 0 0 -0
-1 -1 -0 -1 -0 -0 -0 -1 -2 -3 -2 -3 -2 -2 -0 -0 -0 0 -1 -1 -7 -0 0 -3 -15 -21 -29 -5 -0 -0 0 0 -0 -2 -6 -0 0 -0 0 0 -106 -48 -14 -6 -2 -25 -85 -114 -105 0 -32 -3 -0 0
-0 -0 -0 -0 -0 -1 -0 -1 -2 -2 -2 -1 -0 -0 -1 -1 -6 -4 -24 -22 -18 -7 0 -0 -25 -0 -1 0 0 -2 0 -1 -0 -1 -0 -12 0 0 0 0 0 -60 -26 -22 -6 -58 -19 0 0 0 -0 -0 0 0
-0 0 0 -0 -0 -0 -0 -1 -2 -2 -0 -0 -0 -1 -0 -0 -0 -2 -38 -55 -1 -9 -9 -4 -6 -0 -5 -2 -1 -1 -5 0 -1 -7 -2 -2 -2 0 0 0 0 -16 -38 -20 -6 0 0 0 0 0 0 0 0 0
0 -0 -0 -1 -0 -0 -0 -1 -1 -1 -1 -0 -0 -0 0 -1 -19 -19 -0 0 -1 0 0 0 -2 0 -0 -2 -2 0 0 -2 0 -0 -0 -0 0 0 0 0 0 -23 -1 -1 -15 0 0 0 0 0 -0 -0 0 0
0 0 -0 -0 -0 -0 -0 -0 -1 -0 -0 0 0 0 -9 -10 -0 -0 0 -0 0 0 0 0 -36 -20 -9 -3 0 0 0 0 0 -1 0 0 -0 0 0 -1 -0 0 -0 -1 -3 0 0 0 0 0 0 -0 0 0
0 0 -0 -0 -0 0 -0 -1 -0 -0 0 -2 -1 -7 -0 0 0 0 -0 0 0 -0 -3 -22 -13 -2 -0 -3 -0 0 0 0 0 -0 -1 0 -5 0 -0 0 0 -1 -0 -0 -0 0 -0 0 0 -1 -6 0 0 0
0 -0 0 -0 -0 0 -0 -0 -1 -11 -28 -0 -1 0 0 0 0 0 0 -0 0 -0 0 0 0 0 0 0 0 0 0 -0 -0 0 -0 -1 0 -3 -3 -18 -17 -9 -6 -1 0 0 -1 -1 -3 -10 0 0 0 0
-0 -2 -0 -0 0 0 -0 -1 -17 -12 -1 -0 -0 0 0 0 -2 -0 0 -0 -4 -9 -0 0 -1 0 0 0 0 0 -0 -1 -0 -0 -0 -0 0 -12 -0 -0 0 0 0 0 -0 0 0 0 0 0 0 0 0 0
-0 -1 0 -0 0 0 0 -3 -12 -1 -0 0 -0 -0 -2 -4 -1 -1 -0 -6 -1 -0 -0 -2 0 0 0 0 0 0 0 0 0 -0 -11 0 -0 -9 -13 0 0 0 0 0 0 0 0 0 0 0 0 0 0 0
-0 -0 0 -0 0 0 -0 -2 -4 -0 -0 -0 0 0 0 0 0 0 -2 -2 -12 -8 -0 -0 0 0 0 0 0 0 -2 -1 -7 0 0 0 -0 -1 0 0 0 0 0 0 0 0 0 0 0 0 0 0 0 0
-3 -0 -2 -2 -1 -0 -2 0 -0 -0 0 0 -1 0 -0 -3 -1 -33 -18 -1 -0 0 0 -1 0 -0 -0 -0 0 -0 0 0 0 0 -2 0 0 0 0 0 0 0 0 0 0 0 -0 0 0 0 0 0 0 0
0 0 -0 0 -0 -1 0 -0 0 0 0 0 0 0 -0 -2 -38 0 -23 0 0 0 -0 -0 0 0 -1 -0 -0 -0 -2 -2 -1 -3 -1 -0 0 -1 0 0 0 0 0 -0 0 -0 -0 0 0 0 0 0 0 0
0 0 -1 -2 -1 -1 0 -0 0 -0 -2 -0 -0 -1 -2 -2 0 0 -0 -1 -0 -1 0 0 -6 0 -0 -1 -11 -11 0 -1 0 0 0 0 0 0 -0 0 0 0 0 0 0 0 0 0 0 0 0 0 0 0
0 -3 0 -5 -2 0 0 -0 -0 -3 0 -1 -6 -17 -1 -23 -4 -0 0 0 -0 0 0 0 0 -0 -13 -2 0 0 0 0 -0 -1 0 0 0 0 0 0 0 0 0 0 0 0 0 0 0 0 0 0 0 0
-1 -2 -13 -2 -0 -0 0 -0 -1 0 0 -1 -4 -2 -1 -3 -1 -0 -0 -3 -0 0 0 -1 -2 0 -0 0 0 0 0 0 -0 0 -0 0 0 -0 0 -0 0 0 0 0 0 0 -0 0 0 -0 -0 -0 -0 0
-13 -20 -0 -1 0 -0 -1 -0 -0 -1 -0 -1 -1 -1 0 0 -0 0 -7 0 0 -0 -1 -1 -0 0 0 0 -0 0 0 0 0 0 0 -0 0 -0 0 0 0 -0 -0 -0 0 -0 -0 -2 0 -0 0 0 -1 0
0 0 -3 0 -2 -2 -1 -0 0 -0 0 -0 0 -0 -0 -0 -0 0 0 -0 0 -3 -4 0 0 0 -1 0 -0 0 0 -0 0 -0 -0 -0 -0 -1 -1 -0 -2 -1 0 -1 0 -2 -0 0 -0 0 -0 0 0 0
0 -0 -0 -6 -4 -1 0 0 -5 -3 -1 -1 -0 0 -0 0 -0 0 0 0 -2 -5 0 0 -0 0 0 0 0 0 0 0 -0 -2 -3 -2 -1 -2 -1 -1 -2 -1 -0 -1 -1 -0 0 0 0 0 0 0 0 0
-3 0 0 -7 -1 0 -3 0 -4 -0 -4 0 -0 0 -0 0 0 -0 0 -0 0 -0 -3 0 -0 0 0 -0 0 0 0 -2 -1 -0 -5 -6 -1 -1 -1 -0 -1 -3 0 -0 0 0 0 0 0 0 0 0 0 0
0 0 0 0 0 0 0 0 0 0 -0 0 0 -0 0 -1 0 0 0 0 0 0 -0 -0 -0 -0 -0 -4 0 0 -0 -0 -5 -0 -0 -3 -3 -0 0 0 0 0 -1 -2 -0 0 0 0 0 0 0 -0 0 0
0 0 0 0 0 0 0 0 -0 0 -0 0 -0 -0 0 -1 -1 -1 0 0 0 0 0 0 -1 -0 -0 -0 0 0 0 -1 -0 -0 0 -5 -0 -6 -3 -0 0 -0 -3 -0 -1 -0 0 0 0 -0 0 0 0 0
0 0 0 0 0 0 0 0 0 0 0 -1 0 0 -0 0 -0 0 0 0 0 0 0 -0 0 0 0 0 0 0 0 0 0 0 0 -0 0 0 0 0 0 0 -2 -4 -1 -1 -1 0 -0 -0 -0 0 0 0
0 0 0 0 0 0 0 -0 -0 -0 0 0 0 -0 -0 -2 0 -0 -0 0 0 0 0 0 0 0 0 0 0 0 0 0 0 0 0 0 0 0 0 0 0 -0 -0 0 0 -1 0 -0 -0 0 -0 0 0 0
0 -0 0 0 -1 0 -0 -0 0 -0 0 0 0 0 0 0 -1 -1 -0 -0 0 0 0 0 0 0 0 0 0 0 0 0 0 0 0 0 -1 0 -0 0 0 0 -0 0 0 0 0 0 -0 0 0 0 0 0
0 0 0 0 0 0 0 0 0 0 -0 0 0 0 0 0 -0 -2 -0 0 0 0 0 -0 0 -0 0 0 0 0 0 0 0 0 0 0 0 0 0 0 0 -0 0 0 0 0 0 0 0 -0 -0 0 -0 0
0 0 0 0 0 0 -0 0 0 0 0 0 0 0 0 0 -0 -6 0 0 0 0 0 -0 0 0 0 0 -0 -0 -2 -0 0 -0 0 0 0 0 0 -0 0 0 0 -0 0 0 0 0 -0 0 0 -0 0 -1
0 0 0 0 0 0 -0 0 0 0 0 0 0 -0 0 0 -0 0 0 0 0 0 0 0 0 0 0 0 -0 0 0 0 0 -1 -1 -0 0 0 0 0 0 -0 -0 -0 0 -0 0 0 0 0 0 -0 0 -0
Wind_Speed
14 14 14 14 13 15 15 15 15 16 16 14 13 13 13 13 14 10 2 6 6 5 16 19 22 18 17 10 15 15 14 11 5 6 8 10 9 12 15 23 21 12 8 9 6 7 11 11 14 17 11 11 7 6
13 13 11 10 10 12 13 12 13 14 14 12 13 14 12 13 15 15 4 5 7 6 6 8 15 20 22 22 8 7 16 10 4 3 3 3 6 5 10 4 13 16 10 9 11 8 9 11 12 8 10 3 3 2
14 13 12 11 9 10 13 13 13 14 13 13 13 13 12 11 13 15 7 4 3 3 6 9 18 21 19 18 15 5 3 4 2 5 1 2 6 3 6 9 14 16 15 9 8 14 21 16 10 3 8 10 4 3
15 13 12 12 10 12 14 13 13 13 12 13 13 12 10 10 13 16 9 5 2 4 4 9 14 18 19 17 19 15 14 2 3 3 2 3 4 4 5 5 9 13 12 10 9 9 11 11 27 10 12 5 4 6
14 13 11 13 11 12 14 13 13 13 15 14 11 9 9 10 10 9 8 7 6 4 5 8 16 14 11 12 15 14 12 11 3 2 4 6 6 8 8 11 12 12 11 6 7 11 9 13 9 5 4 5 4 9
14 14 12 11 15 16 14 13 14 16 16 15 13 13 11 9 7 4 3 8 9 5 4 5 6 11 10 14 15 13 10 9 3 2 3 7 12 9 7 11 16 17 15 16 9 19 14 6 4 2 7 7 2 4
14 13 12 11 15 16 15 14 15 16 15 13 12 11 10 8 6 5 2 2 6 4 3 5 6 5 11 12 9 9 11 7 5 3 6 11 11 8 6 16 18 19 20 16 10 9 4 6 3 2 5 8 13 13
15 15 13 13 17 16 15 14 14 14 14 12 10 9 7 7 8 6 6 6 5 2 4 5 6 6 4 6 5 2 4 3 4 4 5 8 7 9 11 17 18 20 18 15 5 2 6 10 8 8 8 9 11 12
16 15 16 18 19 18 16 16 15 15 14 12 9 6 3 4 4 5 14 10 3 3 4 4 5 6 7 2 2 1 1 4 3 5 8 5 8 11 13 17 18 17 13 13 6 11 11 10 11 10 11 14 13 12
18 16 18 21 20 19 17 17 16 15 14 13 8 3 3 5 12 12 3 3 3 4 6 7 6 7 2 4 4 3 3 4 5 8 5 8 16 21 20 19 17 11 10 11 10 11 8 8 10 13 16 11 10 11
20 19 21 23 22 20 19 18 18 17 13 6 3 4 3 4 6 4 4 5 5 5 6 6 13 11 8 6 6 6 3 3 6 5 7 5 6 12 19 24 21 16 12 8 10 11 8 11 11 11 12 12 12 12
23 21 24 25 23 21 20 20 20 12 6 4 1 2 2 4 5 5 5 5 6 6 4 5 5 5 3 3 3 4 4 5 7 3 3 4 4 11 8 10 13 13 7 7 11 6 10 12 11 11 10 12 12 10
23 23 27 25 23 22 21 20 20 7 9 3 2 1 4 5 7 5 6 5 5 4 2 1 3 2 2 3 3 4 6 6 1 3 4 2 6 6 6 10 9 9 11 10 10 13 13 13 12 11 13 12 14 12
22 26 27 26 24 22 21 20 19 6 3 3 4 5 5 5 6 5 6 5 2 4 8 6 4 4 3 5 3 5 4 3 4 3 2 3 6 7 5 7 7 10 6 5 8 13 13 14 12 13 14 12 13 12
25 27 26 24 23 21 20 17 14 5 1 3 5 6 8 6 6 6 5 6 6 8 7 3 3 3 2 2 2 3 3 4 5 3 3 6 8 4 5 5 6 9 6 8 9 12 13 13 14 13 11 11 11 11
27 25 15 24 23 21 18 14 8 3 3 5 6 4 5 5 3 1 4 6 6 6 7 2 2 3 4 2 3 4 4 3 4 3 4 6 8 4 4 4 10 8 9 9 10 11 12 12 13 12 11 10 9 10
16 3 24 23 22 20 18 6 4 3 5 5 5 5 6 5 5 5 5 5 5 6 3 3 3 2 3 2 3 4 3 3 3 4 3 5 8 3 8 9 9 8 9 9 11 10 11 11 12 11 11 9 9 8
10 18 24 23 17 15 7 2 4 6 7 6 7 3 4 3 4 5 4 2 3 4 5 3 4 2 3 3 1 2 1 1 2 1 1 2 5 1 6 9 8 8 9 9 10 10 11 11 10 8 10 10 9 8
16 16 22 20 13 5 6 5 7 4 5 5 4 3 2 3 4 6 4 4 5 6 5 4 3 4 3 2 3 4 4 3 2 1 1 1 2 3 7 9 8 10 9 11 11 8 8 8 8 8 8 8 7 7
21 22 19 11 6 3 3 2 2 4 4 3 4 4 3 3 2 0 4 6 4 4 5 4 4 2 2 2 2 3 3 3 1 2 3 3 2 5 8 8 7 9 8 7 8 8 7 7 6 7 6 6 7 7
12 8 5 4 3 6 3 3 4 4 4 4 4 3 4 2 3 3 3 4 3 3 4 5 2 2 3 1 2 2 2 3 3 2 3 4 5 5 6 6 8 6 7 6 7 6 5 6 6 6 5 5 5 6
3 12 4 7 4 4 4 5 3 1 2 3 3 4 4 3 4 3 1 3 4 5 4 3 2 4 3 4 2 2 1 1 1 2 6 6 5 7 6 6 6 6 6 5 6 6 5 6 6 6 5 5 6 5
3 3 2 3 3 4 4 1 3 3 4 3 2 3 4 3 1 1 4 4 4 2 2 2 3 3 2 4 2 2 3 4 3 3 5 4 4 4 5 6 5 6 6 5 6 5 6 9 8 7 6 6 6 6
5 2 2 3 5 4 0 3 3 3 2 3 4 4 4 2 2 3 5 4 4 3 2 2 2 4 3 5 5 4 4 4 2 3 3 4 5 5 5 5 5 4 5 6 6 6 6 6 7 6 6 6 6 6
3 3 3 5 4 4 4 3 3 3 4 4 3 4 1 1 3 4 7 3 7 4 3 3 3 5 5 5 3 4 1 2 4 4 1 2 5 5 5 5 5 5 6 7 7 7 7 6 7 6 6 5 6 7
5 3 3 1 2 3 2 4 3 3 3 3 4 2 1 3 4 6 1 4 4 5 4 2 4 4 5 2 4 4 4 3 1 4 2 1 5 5 6 7 6 5 5 5 7 8 8 7 6 7 7 7 7 7
4 3 2 2 3 4 4 5 5 4 5 4 3 1 3 5 6 2 3 4 4 6 7 6 5 4 4 2 3 4 3 3 2 3 4 2 2 2 5 6 7 6 6 7 6 7 8 7 7 7 6 6 6 7
1 1 2 3 4 2 4 4 3 4 3 3 2 4 4 4 3 3 3 4 4 6 6 4 3 3 1 4 5 5 5 4 5 7 6 6 4 4 5 5 4 8 6 5 5 5 6 6 6 7 6 6 6 6
2 2 3 2 3 4 4 4 4 2 2 2 3 5 7 4 2 4 6 4 3 5 6 5 2 1 2 3 4 4 5 6 8 9 10 6 5 3 4 5 5 5 5 5 6 4 5 5 5 5 5 5 5 6
2 0 4 4 3 5 3 2 5 5 6 6 7 10 11 11 8 5 3 5 6 5 5 4 3 4 4 5 5 5 4 4 2 4 7 7 6 8 6 6 6 6 5 6 6 7 7 6 5 5 5 5 5 4
4 3 5 6 6 6 5 4 6 8 9 11 10 12 13 10 9 7 3 3 4 5 6 5 5 4 5 5 5 6 6 4 5 5 4 5 6 7 6 6 5 5 6 7 7 6 6 5 5 5 5 6 6 6
5 6 6 10 10 8 9 9 7 7 9 9 10 10 10 10 12 1 5 6 4 4 8 6 5 5 4 2 1 1 2 6 6 5 7 5 5 6 6 5 5 5 7 7 6 6 7 7 6 6 7 9 8 9
8 8 9 7 4 3 4 7 7 8 8 9 10 10 10 10 10 4 4 6 6 6 8 8 9 11 4 4 4 4 5 5 8 7 7 9 10 8 5 5 4 6 8 6 6 6 8 10 8 10 9 10 10 10
Wind_Direction
245 242 238 241 245 243 244 239 234 225 224 227 235 236 229 221 217 202 174 190 202 233 266 270 268 254 256 237 247 270 269 240 241 243 231 236 244 250 259 252 249 250 249 253 227 231 254 236 272 263 269 252 317 314
249 242 237 246 247 246 240 233 227 220 220 224 227 223 219 219 211 193 222 188 207 225 285 318 274 258 250 251 254 259 237 274 202 196 207 4 283 246 243 264 287 248 225 243 243 248 235 270 270 335 358 350 7 332
243 234 234 248 233 250 234 222 215 210 212 215 213 214 215 215 207 198 222 192 186 235 251 245 248 245 243 244 191 201 278 217 311 280 313 201 243 238 272 269 266 252 256 233 218 253 281 306 276 107 12 317 275 251
233 232 230 242 242 250 223 212 210 206 205 196 201 210 217 223 221 213 230 220 170 275 257 264 245 227 230 236 241 241 264 164 345 282 235 251 256 215 256 279 291 276 298 290 289 268 275 286 291 147 168 238 274 128
223 227 237 233 249 240 211 205 193 189 184 189 205 208 213 222 231 240 236 236 224 258 320 311 308 278 248 243 255 252 249 265 256 236 225 239 255 267 272 257 253 266 233 225 272 274 216 247 260 30 142 168 169 163
219 227 235 254 232 207 195 187 189 183 188 195 206 208 212 221 241 244 256 216 223 206 282 285 305 289 257 223 230 255 250 249 178 260 264 256 259 279 267 259 263 275 272 198 226 236 213 148 127 235 214 146 342 211
217 226 227 242 191 180 179 180 181 182 185 189 192 199 211 214 222 229 297 350 317 167 252 279 270 242 232 243 226 225 239 245 226 211 234 257 265 288 262 256 271 275 281 280 173 156 121 166 147 211 202 171 166 200
220 219 228 208 183 176 175 171 171 171 172 174 179 190 210 221 259 250 183 167 98 85 262 259 266 280 194 230 222 237 234 238 219 235 245 249 263 251 249 258 265 263 264 273 279 130 95 120 125 120 140 132 139 159
220 224 215 189 180 174 169 166 167 165 161 163 166 171 180 215 230 249 147 158 178 187 273 232 253 274 336 237 115 77 307 234 212 227 235 227 231 229 241 250 253 264 269 282 190 140 139 135 129 132 154 176 175 138
214 220 193 180 176 170 166 166 165 159 156 153 175 164 222 220 113 112 144 200 221 212 230 248 247 255 249 177 179 203 184 228 243 218 204 221 242 243 244 249 258 245 281 283 150 165 158 150 160 175 191 167 146 148
206 201 184 173 170 166 165 164 159 153 149 186 168 226 6 163 181 221 207 213 198 236 219 239 219 228 179 248 202 208 205 236 250 199 207 231 251 236 238 240 234 240 257 220 180 172 177 169 175 181 172 160 148 146
195 187 174 167 165 164 165 162 158 168 184 168 50 85 148 226 211 210 214 209 217 244 185 232 240 230 215 212 236 181 243 219 251 135 248 244 350 313 278 269 215 216 196 158 141 184 179 169 164 171 153 137 131 118
176 174 166 163 163 164 162 160 174 179 146 164 222 272 224 198 233 216 225 217 211 194 297 270 229 220 149 194 180 232 230 237 149 245 244 21 336 4 3 75 86 101 108 132 165 190 176 155 158 132 122 104 106 111
169 163 159 159 160 160 161 166 188 228 254 222 186 254 234 186 238 216 289 319 223 221 252 259 234 193 177 180 203 233 228 269 268 255 261 29 337 331 104 128 151 146 166 197 173 113 104 97 87 88 100 110 117 124
158 152 154 156 154 156 162 170 179 215 269 265 228 242 219 245 293 318 307 290 291 293 286 287 222 199 179 236 215 276 221 239 218 257 50 6 337 47 44 87 110 85 79 71 77 90 97 100 101 99 107 115 119 128
139 139 152 150 151 156 157 150 184 239 285 252 243 261 287 289 276 314 314 298 306 295 279 215 270 224 200 236 199 230 259 273 57 27 13 337 345 348 157 91 87 77 84 91 94 101 105 110 116 115 107 114 125 135
105 132 149 150 149 146 157 146 178 215 254 248 248 242 264 269 270 275 290 295 322 303 257 249 215 252 160 212 227 228 312 28 357 2 0 318 337 30 91 92 98 108 109 109 109 107 107 108 111 113 119 126 129 126
120 139 144 142 142 144 171 170 210 231 243 247 254 251 273 265 279 275 268 316 285 261 264 271 298 249 250 251 308 25 2 96 179 225 317 323 332 352 123 122 130 124 120 118 118 118 120 128 131 128 131 132 124 127
130 137 140 149 152 128 171 219 226 251 245 266 275 278 253 239 232 254 271 265 252 262 297 266 253 255 251 22 347 339 344 3 348 149 127 196 306 97 113 129 122 129 129 133 137 140 146 160 129 143 142 155 144 151
124 139 151 166 137 245 223 199 330 278 272 287 262 239 244 245 294 211 270 256 239 242 224 229 244 354 8 37 12 326 322 307 239 215 171 157 136 133 150 148 142 141 140 141 124 134 134 121 130 135 149 159 146 156
134 158 175 197 242 229 267 197 214 229 278 274 321 324 278 192 233 239 251 201 227 240 241 224 222 128 91 47 275 292 275 260 251 291 168 158 175 171 166 119 152 148 143 136 143 135 142 138 137 125 134 122 124 136
89 169 192 191 257 248 251 231 254 134 254 275 297 225 271 256 248 223 251 230 238 229 232 250 219 138 174 224 174 238 82 174 192 75 103 124 162 163 154 167 158 149 135 144 138 153 142 125 117 126 138 129 124 136
169 189 272 268 250 261 269 321 237 228 254 257 249 255 253 255 219 146 254 237 253 223 159 152 100 55 109 100 141 165 211 224 188 162 147 177 159 149 157 169 138 150 143 149 128 145 117 120 141 147 139 145 152 146
124 112 223 236 228 269 304 249 238 261 268 257 243 257 264 297 334 255 258 260 258 111 203 111 167 205 183 188 206 187 198 238 148 148 201 151 145 150 156 145 146 152 146 132 139 129 130 142 151 157 152 164 170 159
202 190 216 223 205 234 232 231 221 251 251 235 253 260 244 246 251 250 256 293 19 36 37 115 249 240 241 229 187 126 237 216 174 163 193 189 143 152 145 150 136 105 122 132 138 145 152 148 167 167 165 175 175 179
227 151 238 281 255 251 292 275 238 259 301 272 250 303 312 266 253 247 16 15 3 7 1 291 260 259 262 191 158 167 185 227 193 164 192 105 147 160 159 159 151 147 164 146 156 160 153 158 170 170 166 182 182 184
234 181 237 196 275 280 271 255 259 261 250 244 263 260 240 242 239 95 57 41 338 338 319 309 299 278 282 130 82 97 109 69 340 146 125 76 52 160 169 173 178 160 148 149 153 167 163 167 170 173 175 172 182 188
335 270 299 309 290 282 274 284 259 245 251 12 276 239 251 261 5 26 16 353 330 318 307 297 304 312 160 136 121 112 93 82 74 84 78 61 53 61 71 68 69 115 125 133 154 157 158 164 169 175 186 178 172 175
264 332 320 257 263 246 232 241 265 340 31 286 269 289 287 1 1 305 302 318 317 302 300 290 260 353 57 109 126 138 149 174 170 174 183 173 166 158 126 124 118 110 128 126 117 124 139 151 160 164 163 187 182 171
253 5 279 255 215 246 255 306 295 333 319 307 295 289 284 283 293 310 293 280 288 282 286 286 279 220 229 200 180 184 189 205 221 213 206 197 171 139 152 150 145 140 139 144 132 117 110 113 117 133 148 135 135 154
286 279 252 248 266 284 325 337 297 277 264 264 260 259 268 280 284 281 339 10 320 298 288 269 257 238 247 226 211 195 189 172 143 117 92 100 119 133 144 145 143 147 150 139 144 153 153 156 149 142 138 139 128 122
271 257 280 293 290 299 301 287 287 279 280 276 272 271 274 268 272 212 22 342 313 315 337 315 288 278 230 239 182 113 262 150 156 148 144 135 130 127 129 130 143 148 139 144 156 148 163 149 143 151 149 139 142 123
271 265 273 282 279 274 356 335 291 284 269 276 278 283 286 283 292 67 62 20 355 353 346 334 323 322 228 194 183 135 133 140 139 139 133 128 129 133 131 141 148 141 144 146 144 153 163 151 151 141 135 130 121 121